When you browse on this site, cookies collect data to enhance your experience and personalize the content and advertising you see.
Visit our Privacy Policy to learn more. By continuing to use the site, you agree to this use of cookies and data.
  • en France
  • Liste des pays
  • À 7 jours
  • Température de l'eau
  • Carte météo
  • Widgets météo
  • user-avatar
    Se connecter

    Météo par heure à Dresden

    Ce jour, 21 Septembre, Samedi

    Heure Température Précipitation Vent Pression Humidité
    00:00 +10°C° 0 mm 1 m/s 757 mmHg 81%
    01:00 +10°C° 0 mm 1 m/s 757 mmHg 81%
    02:00 +10°C° 0 mm 1 m/s 757 mmHg 82%
    03:00 +10°C° 0 mm 1 m/s 757 mmHg 83%
    04:00 +8°C° 0 mm 2 m/s 757 mmHg 83%
    05:00 +9°C° 0 mm 2 m/s 757 mmHg 82%
    06:00 +9°C° 0 mm 2 m/s 756 mmHg 81%
    07:00 +10°C° 0 mm 2 m/s 756 mmHg 79%
    08:00 +13°C° 0 mm 2 m/s 756 mmHg 72%
    09:00 +15°C° 0 mm 2 m/s 756 mmHg 64%
    10:00 +18°C° 0 mm 1 m/s 756 mmHg 56%
    11:00 +18°C° 0 mm 2 m/s 756 mmHg 54%
    12:00 +19°C° 0 mm 2 m/s 755 mmHg 51%
    13:00 +21°C° 0 mm 2 m/s 755 mmHg 48%
    14:00 +21°C° 0 mm 2 m/s 754 mmHg 49%
    15:00 +21°C° 0 mm 2 m/s 754 mmHg 50%
    16:00 +20°C° 0 mm 2 m/s 753 mmHg 52%
    17:00 +19°C° 0 mm 2 m/s 753 mmHg 57%
    18:00 +17°C° 0 mm 2 m/s 753 mmHg 63%
    19:00 +15°C° 0 mm 2 m/s 753 mmHg 68%
    20:00 +14°C° 0 mm 2 m/s 753 mmHg 69%
    21:00 +14°C° 0 mm 2 m/s 753 mmHg 71%
    22:00 +13°C° 0 mm 2 m/s 753 mmHg 72%
    23:00 +13°C° 0 mm 2 m/s 752 mmHg 71%

    Demain, 22 Septembre, Dimanche

    Heure Température Précipitation Vent Pression Humidité
    00:00 +13°C° 0 mm 2 m/s 752 mmHg 70%
    01:00 +12°C° 0 mm 2 m/s 752 mmHg 70%
    02:00 +12°C° 0 mm 2 m/s 752 mmHg 70%
    03:00 +11°C° 0 mm 3 m/s 751 mmHg 69%
    04:00 +10°C° 0 mm 3 m/s 751 mmHg 69%
    05:00 +11°C° 0 mm 3 m/s 751 mmHg 68%
    06:00 +11°C° 0 mm 3 m/s 751 mmHg 67%
    07:00 +11°C° 0 mm 3 m/s 751 mmHg 66%
    08:00 +13°C° 0 mm 4 m/s 750 mmHg 60%
    09:00 +15°C° 0 mm 4 m/s 750 mmHg 55%
    10:00 +18°C° 0 mm 4 m/s 750 mmHg 49%
    11:00 +19°C° 0 mm 4 m/s 750 mmHg 48%
    12:00 +20°C° 0 mm 5 m/s 749 mmHg 47%
    13:00 +21°C° 0 mm 5 m/s 749 mmHg 46%
    14:00 +21°C° 0 mm 5 m/s 748 mmHg 47%
    15:00 +21°C° 0 mm 4 m/s 748 mmHg 48%
    16:00 +21°C° 0 mm 4 m/s 748 mmHg 49%
    17:00 +19°C° 0 mm 4 m/s 748 mmHg 52%
    18:00 +17°C° 0 mm 3 m/s 748 mmHg 56%
    19:00 +14°C° 0 mm 3 m/s 748 mmHg 60%
    20:00 +14°C° 0 mm 3 m/s 748 mmHg 60%
    21:00 +13°C° 0 mm 3 m/s 748 mmHg 60%
    22:00 +13°C° 0 mm 3 m/s 748 mmHg 60%
    23:00 +13°C° 0 mm 2 m/s 748 mmHg 61%

    Après-demain, 23 Septembre, Lundi

    Heure Température Précipitation Vent Pression Humidité
    00:00 +13°C° 0 mm 2 m/s 747 mmHg 62%
    01:00 +13°C° 0 mm 2 m/s 747 mmHg 63%
    02:00 +13°C° 0 mm 2 m/s 747 mmHg 64%
    03:00 +12°C° 0 mm 2 m/s 747 mmHg 64%
    04:00 +12°C° 0 mm 2 m/s 747 mmHg 65%
    05:00 +13°C° 0 mm 2 m/s 747 mmHg 64%
    06:00 +13°C° 0 mm 2 m/s 747 mmHg 64%
    07:00 +14°C° 0 mm 2 m/s 747 mmHg 63%
    08:00 +15°C° 0 mm 2 m/s 747 mmHg 62%
    09:00 +16°C° 0 mm 2 m/s 747 mmHg 60%
    10:00 +18°C° 0 mm 2 m/s 748 mmHg 58%
    11:00 +18°C° 0 mm 2 m/s 748 mmHg 62%
    12:00 +18°C° 0 mm 2 m/s 748 mmHg 65%
    13:00 +18°C° 0 mm 2 m/s 748 mmHg 69%
    14:00 +17°C° 0.2 mm 2 m/s 748 mmHg 74%
    15:00 +17°C° 0.2 mm 2 m/s 748 mmHg 80%
    16:00 +16°C° 0.2 mm 2 m/s 748 mmHg 85%
    17:00 +16°C° 0.3 mm 2 m/s 748 mmHg 88%
    18:00 +15°C° 0.3 mm 2 m/s 748 mmHg 91%
    19:00 +15°C° 0.3 mm 2 m/s 748 mmHg 93%
    20:00 +14°C° 0.2 mm 3 m/s 749 mmHg 94%
    21:00 +14°C° 0.2 mm 3 m/s 749 mmHg 94%
    22:00 +14°C° 0.2 mm 3 m/s 749 mmHg 95%
    23:00 +14°C° 0.1 mm 3 m/s 749 mmHg 94%

    24 Septembre, Mardi

    Heure Température Précipitation Vent Pression Humidité
    00:00 +15°C° 0.1 mm 2 m/s 749 mmHg 94%
    01:00 +14°C° 0.1 mm 2 m/s 749 mmHg 94%
    02:00 +14°C° 0.1 mm 2 m/s 749 mmHg 93%
    03:00 +14°C° 0.1 mm 2 m/s 748 mmHg 93%
    04:00 +14°C° 0.1 mm 2 m/s 748 mmHg 93%
    05:00 +14°C° 0 mm 2 m/s 748 mmHg 93%
    06:00 +14°C° 0 mm 2 m/s 748 mmHg 92%
    07:00 +14°C° 0 mm 2 m/s 748 mmHg 92%
    08:00 +15°C° 0 mm 2 m/s 748 mmHg 89%
    09:00 +16°C° 0 mm 2 m/s 748 mmHg 85%
    10:00 +17°C° 0 mm 2 m/s 748 mmHg 82%
    11:00 +17°C° 0 mm 2 m/s 748 mmHg 80%
    12:00 +19°C° 0 mm 1 m/s 747 mmHg 78%
    13:00 +19°C° 0 mm 1 m/s 747 mmHg 77%
    14:00 +19°C° 0.1 mm 1 m/s 746 mmHg 76%
    15:00 +20°C° 0.1 mm 1 m/s 746 mmHg 75%
    16:00 +20°C° 0.1 mm 1 m/s 746 mmHg 73%
    17:00 +18°C° 0.1 mm 2 m/s 745 mmHg 78%
    18:00 +17°C° 0.1 mm 2 m/s 745 mmHg 82%
    19:00 +15°C° 0.1 mm 2 m/s 745 mmHg 87%
    20:00 +15°C° 0.1 mm 2 m/s 745 mmHg 87%
    21:00 +15°C° 0.1 mm 2 m/s 745 mmHg 87%
    22:00 +15°C° 0.1 mm 2 m/s 745 mmHg 87%
    23:00 +15°C° 0 mm 2 m/s 745 mmHg 87%

    25 Septembre, Mercredi

    Heure Température Précipitation Vent Pression Humidité
    00:00 +15°C° 0 mm 2 m/s 744 mmHg 87%
    01:00 +14°C° 0 mm 2 m/s 744 mmHg 87%
    02:00 +14°C° 0.1 mm 2 m/s 744 mmHg 87%
    03:00 +14°C° 0.1 mm 2 m/s 743 mmHg 87%
    04:00 +14°C° 0.1 mm 2 m/s 743 mmHg 88%
    05:00 +14°C° 0.1 mm 2 m/s 743 mmHg 88%
    06:00 +13°C° 0.1 mm 3 m/s 743 mmHg 87%
    07:00 +13°C° 0.1 mm 3 m/s 743 mmHg 87%
    08:00 +14°C° 0.1 mm 4 m/s 743 mmHg 83%
    09:00 +15°C° 0.1 mm 4 m/s 743 mmHg 79%
    10:00 +16°C° 0.1 mm 5 m/s 743 mmHg 76%
    11:00 +17°C° 0.6 mm 5 m/s 743 mmHg 74%
    12:00 +17°C° 0.6 mm 5 m/s 743 mmHg 72%
    13:00 +17°C° 0.6 mm 6 m/s 743 mmHg 71%
    14:00 +17°C° 0.3 mm 5 m/s 743 mmHg 72%
    15:00 +16°C° 0.3 mm 5 m/s 743 mmHg 74%
    16:00 +15°C° 0.3 mm 5 m/s 743 mmHg 76%
    17:00 +15°C° 0.1 mm 4 m/s 744 mmHg 77%
    18:00 +14°C° 0.1 mm 4 m/s 744 mmHg 78%
    19:00 +13°C° 0.1 mm 4 m/s 745 mmHg 79%
    20:00 +13°C° 0 mm 4 m/s 745 mmHg 78%
    21:00 +12°C° 0 mm 4 m/s 745 mmHg 78%
    22:00 +12°C° 0 mm 4 m/s 745 mmHg 78%
    23:00 +12°C° 0 mm 4 m/s 745 mmHg 80%

    26 Septembre, Jeudi

    Heure Température Précipitation Vent Pression Humidité
    00:00 +11°C° 0 mm 4 m/s 745 mmHg 81%
    01:00 +11°C° 0 mm 4 m/s 746 mmHg 82%
    02:00 +11°C° 0.1 mm 4 m/s 746 mmHg 83%
    03:00 +12°C° 0.1 mm 4 m/s 746 mmHg 84%
    04:00 +12°C° 0.1 mm 3 m/s 746 mmHg 85%
    05:00 +12°C° 0.2 mm 3 m/s 745 mmHg 87%
    06:00 +12°C° 0.2 mm 3 m/s 745 mmHg 88%
    07:00 +12°C° 0.2 mm 3 m/s 745 mmHg 90%
    08:00 +13°C° 0.5 mm 4 m/s 746 mmHg 88%
    09:00 +13°C° 0.5 mm 4 m/s 746 mmHg 87%
    10:00 +14°C° 0.5 mm 4 m/s 746 mmHg 85%
    11:00 +14°C° 0.1 mm 4 m/s 746 mmHg 82%
    12:00 +15°C° 0.1 mm 5 m/s 746 mmHg 78%
    13:00 +16°C° 0.1 mm 5 m/s 745 mmHg 74%
    14:00 +17°C° 0 mm 4 m/s 745 mmHg 73%
    15:00 +18°C° 0 mm 4 m/s 745 mmHg 72%
    16:00 +18°C° 0 mm 3 m/s 745 mmHg 71%
    17:00 +17°C° 0 mm 3 m/s 744 mmHg 74%
    18:00 +16°C° 0 mm 3 m/s 744 mmHg 77%
    19:00 +16°C° 0 mm 3 m/s 744 mmHg 79%
    20:00 +16°C° 0.6 mm 3 m/s 744 mmHg 83%
    21:00 +14°C° 0.6 mm 3 m/s 744 mmHg 87%
    22:00 +14°C° 0.6 mm 3 m/s 744 mmHg 90%
    23:00 +14°C° 0.1 mm 4 m/s 744 mmHg 90%
    Voir plus